Torna al catalogo

STARLINK-6333

AttivoComunicazioniVLEO
NORAD 56521·PAYLOAD·🇺🇸 United States

Lanciato May 14, 2023 da Cape Canaveral Space Force Station

Loading…

Prossimi Passaggi (prossime 24 ore)

TLE

AggiornatoSource: CelesTrak SupGP

Epoca: Sep 14, 2026, 21:12 UTC

1 56521C 23065U   26257.88381944  .00031068  00000+0  11254-2 0  2571
2 56521  43.0016 227.6209 0000382 243.1279  59.0881 15.27560243    11

Traccia STARLINK-6333 in tempo reale con AllMySat

Download on the App Store